Погода в Муравле

Россия / Орловская область     52°21′21″N   35°52′48″E
темп.,
°C
ветер,
м/с
пор.,
м/с
влажн.,
%
обл.,
%
осадки,
мм/ч
давл.,
гПа
погр.,
м
14 июня, пн
пн1400:00+15ю229176 0.0 101020
03:00+14ююв229164 0.0 101120
06:00+16ююв23915 0.0 101278
09:00+20ююв23788 0.0 1013419
12:00+23вюв11645 0.0 10141088
15:00+24всв116139 0.8 10141302
18:00+24св116655 0.6 10141105
21:00+19св228392 2.1 101414
15 июня, вт
вт1500:00+17в229076 2.5 101514
03:00+16ссв1190100 2.5 101411
06:00+17св2290100 0.0 101450
09:00+21ссв2281100 0.0 1014394
12:00+23всв2272100 0.4 1013822
15:00+24св1263100 0.5 10121269
18:00+24ссв117072 0.0 10111110
21:00+19ссв228577 0.1 101111
16 июня, ср
ср1600:00+18ссз228847 1.3 101011
03:00+16ссз2291100 1.3 101115
06:00+17с239278 0.0 101183
09:00+21ссв348133 0.0 1012419
12:00+23с447261 1.3 1012929
15:00+24ссв45709 2.6 10131161
18:00+22ссв46815 1.2 1014798
21:00+18св49910 1.3 1016172
17 июня, чт
чт1700:00+16всв38950 0.0 1017153
03:00+15св49955 0.0 1019196
06:00+15всв411915 0.0 1021297
09:00+19всв68730 0.0 1021614
12:00+21всв67595 0.0 10231193
15:00+21всв67590 0.0 10231287
18:00+21св57730 0.0 10241111
21:00+15всв49880 0.0 1025169
18 июня, пт
пт1800:00+13всв36908 0.0 102693
03:00+12всв359133 0.0 102784
06:00+14всв368751 0.0 1028142
09:00+19в45710 0.0 1028491
12:00+22в45610 0.0 10281298
15:00+23в34591 0.0 10281565
18:00+22в34700 0.0 10271023
21:00+17вюв33845 0.0 102826